Location: Newark
(7.0858°N, 171.3717°E)
Time: 13:38:05
(UTC+00:00)

Vanguard 1 Rocket - Pass Details

Date: 04 December 2020
Orbit: 655 x 4222 km, 34.3° (Epoch: 23 January)

Event Time Altitude Azimuth Distance (km) Brightness Sun altitude
Rises 12:53:48 0° 269° (W) 7,413 12.0 -73.2°
Enters shadow 12:56:11 - 272° (W) 7,110 11.8 -73.0°
Exits shadow 13:38:48 18° 36° (NE) 6,128 11.4 -66.6°
Drops below altitude 10° 13:42:55 10° 44° (NE) 6,539 11.7 -65.8°
Sets 13:48:01 0° 53° (NE) 7,145 12.0 -64.8°
